sat.trackr.live / text

‹ back to catalog

STARLINK-33640

NORAD 63378 · 2025-063R

PAYLOAD ACTIVE UNKNOWN

§ Identity

Operator
Country
US
Launch date
2025-03-26
Launch site
AFWTR
Launch vehicle
Mass (kg)
RCS (m²)

Purposes: comms

External: N2YO · Heavens-Above · Gunter

§ Orbital elements

Epoch: 2026-09-20T04:22:13.784736Z

Period
93.85 min
Inclination
53.1576°
Eccentricity
0.0000671
Mean motion
15.34417099 rev/d
Perigee alt
462.2 km
Apogee alt
463.1 km
Semi-major
6,840.8 km
B*
5.5288e-4
RAAN
227.1809°
Arg perigee
63.2967°
Mean anomaly
296.8105°
Rev number
8,456

§ Raw data

STARLINK-336401 63378U 25063R   26263.18210399  .00018360  00000+0  55288-3 0  99932 63378  53.1576 227.1809 0000671  63.2967 296.8105 15.34417099 84569

JSON: /api/v1/satellites/63378 · /tle

For live sub-satellite position, see the globe view (requires WebGL).

§ Visibility from observer

Set your observer location to see the next 7 days of passes ≥ 10°. The values pass through the URL so the page stays shareable.

No JS? Fill the form by hand. The geolocation button needs JavaScript.